Location: Unspecified
(42.0334°N, 93.6656°W)
Time: 01:15:30
(UTC-05:00)

Amateur Radio Satellites - All Passes

Search period start: 31 August 2014 00:45
Search period end: 01 September 2014 00:45
Location: Unspecified, 42.0334°N, 93.6656°W

Satellite Date Start Highest point End Downlink Frequencies (MHz)
Time Altitude Azimuth
PCSat 31 Aug 00:53:42 00:57:01 16° 40° (NE) 01:00:19 145.825 MHz
Oscar 16 31 Aug 01:39:39 01:42:49 16° 91° (E) 01:45:59 437.025 USB, Beacon 2401.1428
KITSAT 1 31 Aug 01:44:16 01:51:39 37° 315° (NW) 01:59:04 435.175 FM
Sapphire 31 Aug 02:06:28 02:11:42 45° 54° (NE) 02:16:53 437.095 MHz 1200 baud AX-25 AFSK
AO-27 31 Aug 02:07:33 02:09:29 12° 89° (E) 02:11:24 436.795 MHz FM
PCSat 31 Aug 02:35:50 02:41:18 83° 60° (ENE) 02:46:43 145.825 MHz
Gurwin Techsat 1B 31 Aug 02:38:10 02:38:27 10° 87° (E) 02:38:43 435.225 FM
Oscar 19 31 Aug 02:42:28 02:47:38 61° 101° (E) 02:52:45 437.125 CW, 437.150 USB
AO-Echo 31 Aug 03:08:24 03:12:58 50° 100° (E) 03:17:33 ?
SO-50 31 Aug 03:10:31 03:13:20 17° 110° (ESE) 03:16:13 436.795 FM
ITAMSAT 1 31 Aug 03:15:20 03:20:25 53° 100° (E) 03:25:29 435.822 SSB
Oscar 16 31 Aug 03:17:27 03:22:36 63° 287° (WNW) 03:27:43 437.025 USB, Beacon 2401.1428
Uribyol 2 31 Aug 03:25:11 03:30:23 71° 103° (ESE) 03:35:34 436.500 FM
TMSAT-1 31 Aug 03:26:11 03:30:21 23° 93° (E) 03:34:31 436.925 FM
AO-27 31 Aug 03:44:24 03:49:36 82° 285° (WNW) 03:54:47 436.795 MHz FM
JAS-1B 31 Aug 03:44:50 03:51:40 80° 104° (ESE) 03:57:33 435.800 - 435.900 CW/SSB
Oscar 10/S400 31 Aug 03:45:39 04:57:21 35° 235° (SW) 09:14:32 145.825 - 145.975 CW/USB, Beacon 145.810 USB
KITSAT 1 31 Aug 03:45:49 03:49:51 14° 343° (NNW) 03:53:54 435.175 FM
Sapphire 31 Aug 03:50:23 03:54:51 27° 252° (WSW) 03:59:18 437.095 MHz 1200 baud AX-25 AFSK
Gurwin Techsat 1B 31 Aug 04:13:49 04:19:10 86° 104° (ESE) 04:24:28 435.225 FM
PCSat 31 Aug 04:21:24 04:23:57 14° 257° (WSW) 04:26:29 145.825 MHz
Oscar 19 31 Aug 04:23:01 04:26:29 18° 298° (WNW) 04:29:56 437.125 CW, 437.150 USB
OPAL 31 Aug 04:27:31 04:32:29 59° 70° (ENE) 04:37:33 ?
AO-7 31 Aug 04:41:07 04:48:11 30° 95° (E) 04:55:11 29.400 - 29.500 MHz
AO-Echo 31 Aug 04:48:15 04:51:22 18° 297° (WNW) 04:54:30 ?
SO-50 31 Aug 04:49:02 04:53:25 55° 307° (NW) 04:57:57 436.795 FM
ITAMSAT 1 31 Aug 04:55:46 04:59:31 21° 297° (WNW) 05:03:15 435.822 SSB
TMSAT-1 31 Aug 05:05:26 05:10:28 45° 290° (WNW) 05:15:29 436.925 FM
Uribyol 2 31 Aug 05:06:11 05:09:16 16° 300° (WNW) 05:12:21 436.500 FM
UOSAT-12 31 Aug 05:07:51 05:11:17 21° 111° (ESE) 05:14:46 437.025 FM, 437.400 FM
AO-27 31 Aug 05:26:42 05:28:16 11° 303° (WNW) 05:29:51 436.795 MHz FM
JAS-1B 31 Aug 05:37:00 05:41:15 18° 307° (NW) 05:45:10 435.800 - 435.900 CW/SSB
Uosat F 31 Aug 05:37:29 05:42:30 74° 103° (ESE) 05:47:29 435.120 FM
KITSAT 1 31 Aug 05:45:54 05:49:33 13° 14° (NNE) 05:53:13 435.175 FM
Gurwin Techsat 1B 31 Aug 05:55:49 05:58:23 14° 301° (WNW) 06:00:57 435.225 FM
OPAL 31 Aug 06:08:31 06:11:45 17° 267° (W) 06:15:02 ?
STRAND 1 31 Aug 06:12:53 06:17:02 26° 65° (ENE) 06:21:12 ?
Hamsat 31 Aug 06:30:23 06:34:05 26° 95° (E) 06:37:43 145.90 MHz
AO-7 31 Aug 06:33:17 06:41:24 62° 294° (WNW) 06:49:29 29.400 - 29.500 MHz
SO-50 31 Aug 06:33:51 06:35:03 11° 328° (NNW) 06:36:15 436.795 FM
UOSAT-12 31 Aug 06:46:38 06:51:06 48° 309° (NW) 06:55:40 437.025 FM, 437.400 FM
Uosat F 31 Aug 07:18:00 07:20:40 15° 300° (WNW) 07:23:19 435.120 FM
JAS-2 31 Aug 07:18:46 07:24:02 73° 103° (ESE) 07:29:41 435.800 - 435.900 CW/SSB, 435.910 FM
Saudisat 1A 31 Aug 07:23:52 07:28:08 46° 51° (NE) 07:32:22 436.775 MHz
RS-15 31 Aug 07:34:55 07:45:14 47° 110° (ESE) 07:55:22 29.354 - 29.394 USB, Beacon 29.352 USB
KITSAT 1 31 Aug 07:40:49 07:47:59 33° 42° (NE) 07:55:07 435.175 FM
STRAND 1 31 Aug 07:51:16 07:56:01 39° 262° (W) 08:00:48 ?
Hamsat 31 Aug 08:06:16 08:09:59 28° 291° (WNW) 08:13:39 145.90 MHz
AO-7 31 Aug 08:28:26 08:32:32 15° 315° (NW) 08:36:38 29.400 - 29.500 MHz
UOSAT-12 31 Aug 08:31:51 08:32:26 10° 330° (NNW) 08:33:01 437.025 FM, 437.400 FM
SO-67 31 Aug 08:39:31 08:42:58 62° 284° (WNW) 08:46:22 435.3500 MHz FM
Saudisat 1A 31 Aug 09:04:11 09:07:23 20° 249° (WSW) 09:10:34 436.775 MHz
JAS-2 31 Aug 09:05:45 09:08:38 15° 299° (WNW) 09:11:36 435.800 - 435.900 CW/SSB, 435.910 FM
KITSAT 1 31 Aug 09:35:59 09:43:59 68° 244° (WSW) 09:51:56 435.175 FM
HO-68 31 Aug 09:37:26 09:43:53 35° 97° (E) 09:50:18 435.675 MHz FM
RS-15 31 Aug 09:46:40 09:57:24 55° 313° (NW) 10:08:06 29.354 - 29.394 USB, Beacon 29.352 USB
UKube-1 31 Aug 09:55:16 09:58:34 21° 94° (E) 10:01:52 145.840 MHz, 145.915 MHz
Oscar 11 31 Aug 10:01:11 10:03:58 16° 92° (E) 10:06:44 145.825 FM, Beacon 2401.500 USB
ISS 31 Aug 10:22:40 10:25:33 28° 136° (SE) 10:28:26 145.800 FM
FUNcube-1 31 Aug 10:28:45 10:31:05 14° 90° (E) 10:33:24 145.950 - 145.970 MHz USB
HO-68 31 Aug 11:24:57 11:31:41 46° 295° (WNW) 11:38:25 435.675 MHz FM
UKube-1 31 Aug 11:30:54 11:34:52 35° 291° (WNW) 11:38:48 145.840 MHz, 145.915 MHz
KITSAT 1 31 Aug 11:35:16 11:37:50 12° 262° (W) 11:40:25 435.175 FM
Oscar 11 31 Aug 11:36:12 11:40:23 45° 288° (WNW) 11:44:33 145.825 FM, Beacon 2401.500 USB
SO-50 31 Aug 11:40:11 11:43:57 23° 43° (NE) 11:47:46 436.795 FM
ISS 31 Aug 11:59:02 12:02:11 39° 333° (NNW) 12:05:21 145.800 FM
FUNcube-1 31 Aug 12:03:21 12:07:49 60° 286° (WNW) 12:12:20 145.950 - 145.970 MHz USB
RS-15 31 Aug 12:04:39 12:12:59 24° 344° (NNW) 12:21:23 29.354 - 29.394 USB, Beacon 29.352 USB
Oscar 19 31 Aug 12:24:11 12:26:19 13° 58° (ENE) 12:28:27 437.125 CW, 437.150 USB
MaSat-1 31 Aug 12:33:15 12:36:30 18° 101° (E) 12:39:51 437.345 MHz
JAS-1B 31 Aug 12:40:27 12:46:28 20° 54° (NE) 12:52:04 435.800 - 435.900 CW/SSB
Oscar 16 31 Aug 12:56:45 13:00:55 26° 65° (ENE) 13:05:07 437.025 USB, Beacon 2401.1428
ITAMSAT 1 31 Aug 12:58:33 13:00:16 12° 57° (ENE) 13:02:00 435.822 SSB
PANSAT 31 Aug 12:59:34 12:59:48 10° 174° (S) 13:00:02 not established
Uribyol 2 31 Aug 13:07:03 13:09:53 15° 60° (ENE) 13:12:44 436.500 FM
SO-50 31 Aug 13:20:09 13:24:52 57° 241° (WSW) 13:29:36 436.795 FM
AO-27 31 Aug 13:25:21 13:29:08 21° 63° (ENE) 13:32:56 436.795 MHz FM
UOSAT-12 31 Aug 13:36:10 13:40:03 24° 44° (NE) 13:43:54 437.025 FM, 437.400 FM
ISS 31 Aug 13:37:22 13:39:36 17° 353° (N) 13:41:50 145.800 FM
AO-7 31 Aug 13:56:28 13:57:27 10° 39° (NE) 13:58:27 29.400 - 29.500 MHz
Gurwin Techsat 1B 31 Aug 13:57:36 14:01:15 19° 62° (ENE) 14:04:55 435.225 FM
Oscar 19 31 Aug 13:59:42 14:04:52 90° 75° (ENE) 14:10:06 437.125 CW, 437.150 USB
MaSat-1 31 Aug 14:08:05 14:12:58 61° 299° (WNW) 14:18:07 437.345 MHz
AO-Echo 31 Aug 14:21:31 14:26:31 71° 74° (ENE) 14:31:23 ?
RS-15 31 Aug 14:21:47 14:30:30 26° 21° (NNE) 14:39:22 29.354 - 29.394 USB, Beacon 29.352 USB
JAS-1B 31 Aug 14:26:03 14:35:48 75° 72° (ENE) 14:44:30 435.800 - 435.900 CW/SSB
ITAMSAT 1 31 Aug 14:33:46 14:38:56 84° 75° (ENE) 14:44:08 435.822 SSB
Oscar 16 31 Aug 14:35:11 14:40:02 41° 262° (W) 14:44:56 437.025 USB, Beacon 2401.1428
Uribyol 2 31 Aug 14:43:35 14:48:44 75° 257° (WSW) 14:53:55 436.500 FM
TMSAT-1 31 Aug 14:47:11 14:52:01 38° 68° (ENE) 14:56:52 436.925 FM
AO-27 31 Aug 15:03:15 15:08:16 51° 260° (W) 15:13:20 436.795 MHz FM
ISS 31 Aug 15:14:46 15:17:15 19° 13° (NNE) 15:19:45 145.800 FM
Uosat F 31 Aug 15:15:29 15:18:01 14° 59° (ENE) 15:20:33 435.120 FM
UOSAT-12 31 Aug 15:15:54 15:20:27 49° 242° (WSW) 15:24:56 437.025 FM, 437.400 FM
Gurwin Techsat 1B 31 Aug 15:35:31 15:40:44 60° 259° (W) 15:46:00 435.225 FM
AO-7 31 Aug 15:40:21 15:48:05 44° 61° (ENE) 15:55:48 29.400 - 29.500 MHz
Oscar 19 31 Aug 15:43:58 15:44:55 10° 272° (W) 15:45:52 437.125 CW, 437.150 USB
MaSat-1 31 Aug 15:49:24 15:51:05 11° 319° (NW) 15:52:45 437.345 MHz
AO-Echo 31 Aug 16:03:26 16:05:44 13° 270° (W) 16:08:01 ?
ITAMSAT 1 31 Aug 16:17:25 16:19:04 11° 271° (W) 16:20:43 435.822 SSB
JAS-1B 31 Aug 16:18:46 16:26:43 28° 268° (W) 16:34:09 435.800 - 435.900 CW/SSB
TMSAT-1 31 Aug 16:27:31 16:32:00 28° 265° (W) 16:36:31 436.925 FM
RS-15 31 Aug 16:34:40 16:45:39 63° 50° (NE) 16:57:01 29.354 - 29.394 USB, Beacon 29.352 USB
OPAL 31 Aug 16:38:33 16:41:29 15° 92° (E) 16:44:24 ?
Sapphire 31 Aug 16:48:55 16:53:50 37° 111° (ESE) 16:58:47 437.095 MHz 1200 baud AX-25 AFSK
Uosat F 31 Aug 16:51:09 16:56:10 77° 257° (WSW) 17:01:11 435.120 FM
ISS 31 Aug 16:51:09 16:54:29 65° 32° (NNE) 16:57:47 145.800 FM
PCSat 31 Aug 17:17:44 17:23:06 71° 117° (ESE) 17:28:31 145.825 MHz
Hamsat 31 Aug 17:24:32 17:27:47 21° 66° (ENE) 17:31:04 145.90 MHz
JAS-2 31 Aug 17:32:01 17:37:16 33° 68° (ENE) 17:42:06 435.800 - 435.900 CW/SSB, 435.910 FM
AO-7 31 Aug 17:32:58 17:40:49 44° 260° (W) 17:48:42 29.400 - 29.500 MHz
OPAL 31 Aug 18:15:38 18:20:50 70° 289° (WNW) 18:26:00 ?
ISS 31 Aug 18:28:48 18:30:52 16° 228° (SW) 18:32:56 145.800 FM
Sapphire 31 Aug 18:32:23 18:37:16 34° 309° (NW) 18:42:12 437.095 MHz 1200 baud AX-25 AFSK
RS-15 31 Aug 18:47:34 18:57:31 40° 252° (WSW) 19:07:52 29.354 - 29.394 USB, Beacon 29.352 USB
Hamsat 31 Aug 18:59:32 19:03:31 36° 263° (W) 19:07:33 145.90 MHz
PCSat 31 Aug 19:03:03 19:07:04 21° 316° (NW) 19:11:07 145.825 MHz
SO-67 31 Aug 19:12:47 19:16:04 41° 74° (ENE) 19:19:21 435.3500 MHz FM
JAS-2 31 Aug 19:16:44 19:22:19 36° 262° (W) 19:27:25 435.800 - 435.900 CW/SSB, 435.910 FM
OPAL 31 Aug 19:58:09 19:58:45 10° 307° (NW) 19:59:22 ?
STRAND 1 31 Aug 20:00:58 20:06:03 67° 102° (ESE) 20:11:08 ?
HO-68 31 Aug 20:07:04 20:12:57 29° 59° (ENE) 20:18:51 435.675 MHz FM
SO-67 31 Aug 20:48:16 20:49:19 11° 269° (W) 20:50:23 435.3500 MHz FM
UKube-1 31 Aug 20:51:33 20:54:45 21° 65° (ENE) 20:57:58 145.840 MHz, 145.915 MHz
Oscar 11 31 Aug 20:57:25 20:59:50 15° 63° (ENE) 21:02:15 145.825 FM, Beacon 2401.500 USB
FUNcube-1 31 Aug 21:27:12 21:28:33 11° 61° (ENE) 21:29:55 145.950 - 145.970 MHz USB
STRAND 1 31 Aug 21:41:36 21:44:42 16° 299° (WNW) 21:47:47 ?
HO-68 31 Aug 21:53:12 22:00:13 59° 258° (WSW) 22:07:17 435.675 MHz FM
KITSAT 1 31 Aug 22:13:05 22:17:42 17° 100° (E) 22:22:20 435.175 FM
MaSat-1 31 Aug 22:25:44 22:30:00 35° 55° (NE) 22:33:44 437.345 MHz
UKube-1 31 Aug 22:26:40 22:30:42 37° 262° (W) 22:34:46 145.840 MHz, 145.915 MHz
Oscar 11 31 Aug 22:31:18 22:35:33 55° 260° (W) 22:39:51 145.825 FM, Beacon 2401.500 USB
FUNcube-1 31 Aug 23:00:11 23:04:20 70° 259° (WSW) 23:08:37 145.950 - 145.970 MHz USB
Saudisat 1A 31 Aug 23:09:41 23:14:06 86° 303° (WNW) 23:18:32 436.775 MHz
MaSat-1 01 Sep 00:03:19 00:06:42 22° 257° (WSW) 00:09:44 437.345 MHz
KITSAT 1 01 Sep 00:03:47 00:11:52 83° 119° (ESE) 00:20:00 435.175 FM
PCSat 01 Sep 00:23:45 00:26:09 13° 36° (NE) 00:28:32 145.825 MHz
